[[{"header":{"parameterUnit":"m.s-1","parameterCategory":2,"la1":30.2991,"la2":30.254,"lo1":-89.0895,"lo2":-89.0444,"dy":0.0017,"dx":0.0017,"nx":28,"ny":28,"refTime":"2024-02-07T09:00:00:Z","depth":"0","parameterNumber":2,"parameterNumberName":"U-component_of_CURRENTS"},"data":[0,0,0,0,0,0,0,0,0,0,0,0,0,0,0,0,0,0,0,0,0,0,0,0,0,0,0,0,0,0,0,0,0,0,0,0,0,0,0,0,0,0,0,0,0,0,0,0,0,0,0,0,0,0,0,0,0,0,0.3283,0.3283,0,0.3279,0.3278,0.3278,0.3247,0.3246,0.3246,0.3245,0.3207,0.3206,0.3206,0,0,0,0,0,0,0,0,0,0,0,0,0,0.3296,0.3296,0.3283,0.3283,0.3283,0.3279,0.3278,0.3278,0.3247,0.3246,0.3246,0.3245,0.3207,0.3206,0.3206,0,0,0,0,0,0,0,0,0,0,0,0,0,0.3289,0.3296,0.3283,0.3269,0.3268,0.3279,0.3278,0.3278,0.3247,0.3246,0.3245,0.3245,0.3207,0.3206,0.3206,0.3217,0,0,0.3203,0.3203,0,0,0,0,0,0,0,0,0.3289,0.3288,0.3271,0.327,0.3269,0.3265,0.3269,0.3257,0.3247,0.3252,0.3245,0.3244,0.3225,0.3223,0.3221,0.3215,0.3213,0.3203,0.3203,0.3202,0.3202,0,0,0,0,0,0,0,0.329,0.3288,0.3279,0.3271,0.327,0.3275,0.3272,0.3267,0.3241,0.3252,0.325,0.3254,0.3224,0.3222,0.322,0.3213,0.3203,0.3203,0.3202,0.3202,0.3244,0.3245,0,0,0,0,0,0,0.3295,0.3288,0.3279,0.3279,0.328,0.3275,0.3272,0.3265,0.3241,0.3238,0.3255,0.3253,0.3223,0.322,0.3218,0.3248,0.3202,0.3202,0.3201,0.3242,0.3244,0.3246,0,0,0,0,0,0,0.3295,0.3293,0.3279,0.3286,0.3285,0.3276,0.3268,0.3265,0.3266,0.3245,0.324,0.326,0.3223,0.3219,0.3225,0.3246,0.3201,0.3201,0.324,0.3243,0.3245,0.3297,0,0,0,0,0,0,0.3295,0.3293,0.3294,0.3286,0.3285,0.3292,0.3269,0.3266,0.3271,0.3268,0.3247,0.3242,0.3222,0.3227,0.3225,0.3244,0.32,0.3238,0.3241,0.3244,0.3293,0.33,0.3307,0,0,0,0,0,0.3295,0.3296,0.3294,0.3293,0.3285,0.3293,0.3293,0.3282,0.3272,0.3278,0.3268,0.3243,0.3244,0.3227,0.3224,0.3244,0.3237,0.324,0.3244,0.329,0.3299,0.3307,0,0,0,0,0,0,0.3302,0.3293,0.329,0.3288,0.3296,0.3288,0.3294,0.329,0.3287,0.3284,0.326,0.3255,0.3273,0.3255,0.3237,0.3268,0.3238,0.3242,0.3274,0.3283,0.329,0.3323,0.3199,0,0,0,0,0,0.3306,0.3303,0.3303,0.3304,0.3308,0.3305,0.3308,0.3305,0.3301,0.3298,0.3285,0.3278,0.3286,0.3281,0.3282,0.3293,0.3303,0.3306,0.3314,0.3319,0.3347,0.3373,0.3385,0.3258,0.3258,0.3257,0,0,0.3307,0.3306,0.3302,0.3306,0.3308,0.332,0.3304,0.3314,0.3333,0.3296,0.3311,0.3304,0.3298,0.3314,0.332,0.3299,0.3363,0.3324,0.3329,0.3353,0.3379,0.3391,0.3402,0.326,0.326,0.3259,0,0,0.3312,0.331,0.331,0.3323,0.3335,0.3337,0.3345,0.3345,0.3354,0.3366,0.3358,0.3373,0.3357,0.3373,0.3375,0.3426,0.3405,0.3415,0.3467,0.3492,0.3503,0.3513,0.3546,0.3559,0.341,0.341,0.341,0,0.3316,0.3314,0.3315,0.3329,0.3341,0.3348,0.3361,0.338,0.3385,0.3398,0.3376,0.3398,0.3394,0.3437,0.346,0.3444,0.3452,0.343,0.3501,0.3511,0.352,0.3552,0.3565,0.3413,0.3413,0.3412,0.3412,0,0.332,0.3329,0.3335,0.3351,0.3368,0.3383,0.341,0.343,0.3433,0.3443,0.3481,0.3484,0.3494,0.3499,0.3495,0.3562,0.3546,0.3511,0.3478,0.3536,0.3566,0.3579,0.3417,0.3416,0.3415,0.3415,0,0,0.3298,0.3329,0.3332,0.3342,0.3382,0.3389,0.344,0.3475,0.3508,0.3518,0.3556,0.359,0.3588,0.3597,0.3597,0.3632,0.3708,0.3604,0.3604,0.3636,0.3771,0.3721,0.3729,0.3672,0.3675,0.3677,0.3768,0,0.3299,0.3321,0.3342,0.3369,0.3381,0.3417,0.3462,0.3502,0.3535,0.3577,0.3607,0.3642,0.3626,0.3639,0.3673,0.3708,0.3743,0.3688,0.3713,0.3715,0.3661,0.3743,0.3589,0.3654,0.378,0.3782,0.3783,0,0.3289,0.3308,0.333,0.3373,0.3382,0.3406,0.347,0.3516,0.3596,0.3622,0.3668,0.369,0.3771,0.3733,0.3823,0.3783,0.3793,0.381,0.3812,0.3761,0.3688,0.3616,0.3671,0.3555,0.3802,0.3801,0.3799,0,0.3252,0.3295,0.3308,0.3324,0.338,0.3401,0.3438,0.3519,0.358,0.3664,0.3712,0.3774,0.3831,0.3854,0.39,0.3862,0.399,0.3926,0.3892,0.3888,0.3765,0.3746,0.371,0.3986,0.3986,0.3986,0.3986,0,0.3235,0.3242,0.3289,0.3295,0.3327,0.3377,0.3435,0.3487,0.3594,0.365,0.3733,0.3796,0.3867,0.3939,0.394,0.3974,0.4015,0.3939,0.3919,0.3778,0.3761,0.3657,0.36,0.3989,0.3989,0.3988,0.3987,0,0.3183,0.3214,0.323,0.3285,0.3305,0.3328,0.3433,0.3473,0.3591,0.3676,0.3711,0.3856,0.3939,0.4005,0.4072,0.4038,0.3944,0.4051,0.3895,0.3854,0.3677,0.3629,0.3519,0.3412,0.4024,0.4023,0.4023,0,0.3154,0.3156,0.321,0.3219,0.3239,0.3294,0.3325,0.3448,0.3502,0.3685,0.371,0.3866,0.3938,0.4063,0.4044,0.4063,0.3922,0.3907,0.3805,0.3682,0.3613,0.3497,0.3406,0.3667,0.3663,0.3661,0.3659,0,0.3101,0.312,0.3135,0.3159,0.318,0.3221,0.3281,0.3335,0.3462,0.3547,0.367,0.3768,0.3922,0.3892,0.3944,0.3921,0.3706,0.3849,0.3754,0.3376,0.3216,0.3096,0.3607,0.3634,0.3637,0.3638,0.364,0.3641,0.3056,0.3052,0.3072,0.3078,0.3101,0.3114,0.3103,0.318,0.3251,0.3328,0.3511,0.3579,0.3676,0.3746,0.3708,0.3553,0.3558,0.3403,0.3373,0.3283,0.3113,0.3587,0.3564,0.3566,0.3568,0.3569,0.357,0,0.2978,0.2977,0.2985,0.2972,0.2936,0.2996,0.3028,0.299,0.2984,0.3126,0.3213,0.3279,0.3264,0.3311,0.3248,0.3102,0.2972,0.298,0.2769,0.2716,0.3166,0.3082,0.2912,0.2912,0.2913,0.2913,0.2913,0.2913,0.2938,0.29,0.2891,0.2798,0.278,0.2695,0.2678,0.2648,0.2709,0.272,0.2751,0.2858,0.301,0.2975,0.2824,0.2743,0.2516,0.2392,0.2394,0.2697,0.2733,0.2767,0.2675,0.2422,0.2422,0.1832,0.1827,0.1823]},{"header":{"parameterUnit":"m.s-1","parameterCategory":2,"la1":30.2991,"la2":30.254,"lo1":-89.0895,"lo2":-89.0444,"dy":0.0017,"dx":0.0017,"nx":28,"ny":28,"refTime":"2024-02-07T09:00:00:Z","depth":"0","parameterNumber":3,"parameterNumberName":"V-component_of_CURRENTS"},"data":[0,0,0,0,0,0,0,0,0,0,0,0,0,0,0,0,0,0,0,0,0,0,0,0,0,0,0,0,0,0,0,0,0,0,0,0,0,0,0,0,0,0,0,0,0,0,0,0,0,0,0,0,0,0,0,0,0,0,0.0102,0.0101,0,0.0059,0.0059,0.0058,0.0024,0.0024,0.0024,0.0023,-0.0033,-0.0035,-0.0036,0,0,0,0,0,0,0,0,0,0,0,0,0,0.0091,0.0092,0.0102,0.0101,0.0101,0.0059,0.0059,0.0058,0.0024,0.0024,0.0024,0.0023,-0.0033,-0.0035,-0.0036,0,0,0,0,0,0,0,0,0,0,0,0,0,0.0076,0.0092,0.0102,0.008,0.0078,0.0059,0.0059,0.0058,0.0024,0.0024,0.0024,0.0023,-0.0033,-0.0034,-0.0036,-0.0042,0,0,-0.0042,-0.0043,0,0,0,0,0,0,0,0,0.0077,0.0076,0.0083,0.0081,0.0079,0.0048,0.0034,0.0024,0.0024,0.0043,0.0023,0.0023,-0.0007,-0.0011,-0.0019,-0.0044,-0.0047,-0.0043,-0.0044,-0.0045,-0.0045,0,0,0,0,0,0,0,0.0078,0.0077,0.0083,0.0083,0.008,0.0051,0.0049,0.0032,0.0019,0.0041,0.0039,0.0037,-0.0008,-0.0018,-0.0021,-0.0048,-0.0042,-0.0044,-0.0045,-0.0046,-0.008,-0.008,0,0,0,0,0,0,0.0089,0.0079,0.0085,0.0082,0.0078,0.0052,0.0049,0.0057,0.002,0.0014,0.0037,0.0035,-0.0014,-0.0019,-0.0023,-0.0015,-0.0045,-0.0046,-0.0047,-0.008,-0.008,-0.008,0,0,0,0,0,0,0.009,0.0091,0.0087,0.008,0.0077,0.0053,0.0061,0.0056,0.005,0.0017,0.0011,0.0037,-0.0014,-0.002,-0.0033,-0.0018,-0.0047,-0.0049,-0.0081,-0.008,-0.008,-0.0009,0,0,0,0,0,0,0.009,0.0091,0.0099,0.0081,0.0078,0.0087,0.0062,0.0056,0.005,0.0047,0.0015,0.0009,-0.0015,-0.0029,-0.0034,-0.0021,-0.0051,-0.0081,-0.008,-0.008,-0.0011,-0.0006,-0.0001,0,0,0,0,0,0.009,0.0108,0.0099,0.01,0.009,0.0087,0.0083,0.0063,0.005,0.0055,0.003,0.001,-0.003,-0.003,-0.0037,-0.0023,-0.0081,-0.0081,-0.008,-0.0014,-0.0007,-0.0001,0,0,0,0,0,0,0.0103,0.0105,0.0096,0.0113,0.0104,0.0082,0.0083,0.0069,0.0053,0.0048,0.0015,0.0008,0.0,-0.0022,-0.0022,-0.0034,-0.006,-0.006,-0.0007,-0.0001,0.0004,0.0025,-0.0052,0,0,0,0,0,0.0111,0.0126,0.0117,0.0128,0.0127,0.0105,0.01,0.0088,0.0072,0.0064,0.0042,0.0016,-0.0003,-0.0009,-0.0032,-0.0034,-0.006,-0.0031,-0.0026,-0.0022,-0.0009,-0.0039,-0.0035,-0.0078,-0.0078,-0.0078,0,0,0.0117,0.0121,0.0127,0.0131,0.0121,0.0133,0.0101,0.0101,0.0112,0.0061,0.0065,0.0032,-0.0001,-0.0005,-0.001,-0.002,-0.0024,-0.0021,-0.0016,-0.0006,-0.0038,-0.0034,-0.003,-0.0077,-0.0077,-0.0077,0,0,0.0143,0.0142,0.0165,0.0165,0.0161,0.0151,0.0156,0.014,0.0136,0.0131,0.0098,0.0078,0.0048,0.0033,0.002,0.004,0.0,0.0028,0.0077,0.0048,0.0052,0.0054,0.0026,0.0026,0.0035,0.0035,0.0035,0,0.0148,0.0182,0.0169,0.019,0.0199,0.0167,0.0193,0.0184,0.0166,0.0171,0.0142,0.01,0.0069,0.0071,0.0075,0.0053,0.0028,0.006,0.0056,0.0058,0.006,0.003,0.0029,0.0038,0.0038,0.0038,0.0037,0,0.0196,0.0219,0.0232,0.0254,0.0258,0.0275,0.0266,0.0271,0.0254,0.0239,0.0229,0.0179,0.0158,0.014,0.0113,0.0115,0.009,0.0063,0.0045,0.0069,0.0035,0.0033,0.0043,0.0042,0.0041,0.004,0,0,0.0221,0.0261,0.0266,0.0293,0.0298,0.0311,0.0334,0.035,0.0376,0.033,0.0353,0.0301,0.0264,0.0246,0.0205,0.0177,0.016,0.0132,0.0129,0.0112,0.0095,0.0081,0.0076,0.0131,0.0131,0.0131,0.0067,0,0.0265,0.0332,0.0334,0.0389,0.0425,0.0412,0.0442,0.0445,0.0437,0.0447,0.0387,0.0378,0.0308,0.0298,0.0259,0.0191,0.0157,0.018,0.0067,0.0064,0.0056,0.0074,0.0113,0.0059,0.0064,0.0063,0.0063,0,0.0318,0.036,0.0429,0.0482,0.0495,0.0516,0.0566,0.059,0.059,0.0581,0.0551,0.0495,0.0453,0.0383,0.0274,0.0291,0.0202,0.0136,0.0131,0.0095,0.0046,0.0035,0.0054,-0.0096,0.0058,0.0059,0.0059,0,0.0366,0.0427,0.049,0.0506,0.0555,0.0585,0.0611,0.063,0.0678,0.0666,0.0687,0.0603,0.0583,0.0456,0.0312,0.0293,0.0186,0.0141,0.0041,0.0038,0.0039,0.0037,-0.0091,0.0058,0.0058,0.0058,0.0058,0,0.0424,0.0472,0.0519,0.0554,0.064,0.0643,0.0729,0.0746,0.0784,0.0846,0.076,0.079,0.06,0.0512,0.0355,0.0202,0.0216,0.0059,0.0026,0.0063,0.0064,-0.0093,-0.0176,0.0056,0.0056,0.0057,0.0057,0,0.0469,0.0498,0.0577,0.0639,0.0668,0.0729,0.0824,0.0887,0.0908,0.0988,0.0989,0.094,0.0828,0.063,0.0435,0.0282,0.0038,0.0053,0.0111,0.0086,-0.0152,-0.023,-0.0395,-0.0444,-0.0065,-0.0066,-0.0066,0,0.0502,0.0548,0.0645,0.0703,0.0734,0.0826,0.09,0.0951,0.1029,0.1089,0.1141,0.1062,0.1043,0.0761,0.0467,0.0193,0.0033,0.0029,-0.0007,-0.0151,-0.0263,-0.0332,-0.0366,0.0016,0.0016,0.0017,0.0017,0,0.0564,0.0594,0.066,0.0783,0.0867,0.098,0.1086,0.1172,0.1235,0.1317,0.1404,0.1395,0.1132,0.0891,0.0502,0.0301,-0.0057,0.0023,-0.014,-0.0215,-0.0284,-0.0351,0.0038,0.0018,0.0018,0.0018,0.0018,0.0018,0.0607,0.0666,0.0753,0.087,0.0978,0.112,0.1224,0.1346,0.15,0.1625,0.1603,0.1639,0.1244,0.0744,0.0469,-0.004,-0.0057,-0.0199,-0.0284,-0.0343,-0.0385,0.0008,-0.0043,-0.0043,-0.0044,-0.0044,-0.0045,0,0.0664,0.0731,0.0837,0.0978,0.1101,0.1151,0.1341,0.1456,0.1649,0.1768,0.1852,0.1685,0.1246,0.0756,0.0076,-0.0274,-0.04,-0.0483,-0.0572,-0.0593,-0.0252,-0.0242,-0.0321,-0.0321,-0.032,-0.032,-0.032,-0.032,0.0695,0.0798,0.0852,0.1054,0.1156,0.1333,0.1448,0.1628,0.1769,0.1942,0.198,0.1962,0.1543,0.0366,-0.0426,-0.0597,-0.0815,-0.0888,-0.1014,-0.0788,-0.0768,-0.0749,-0.0761,-0.0946,-0.0947,-0.1292,-0.1296,-0.1299]}],[{"header":{"parameterUnit":"m.s-1","parameterCategory":2,"la1":30.2991,"la2":30.254,"lo1":-89.0895,"lo2":-89.0444,"dy":0.0017,"dx":0.0017,"nx":28,"ny":28,"refTime":"2024-02-07T09:00:00:Z","depth":"2","parameterNumber":2,"parameterNumberName":"U-component_of_CURRENTS"},"data":[0,0,0,0,0,0,0,0,0,0,0,0,0,0,0,0,0,0,0,0,0,0,0,0,0,0,0,0,0,0,0,0,0,0,0,0,0,0,0,0,0,0,0,0,0,0,0,0,0,0,0,0,0,0,0,0,0,0,0.2851,0.2852,0,0.286,0.2859,0.2859,0.2845,0.2845,0.2844,0.2844,0.2831,0.2831,0.2831,0,0,0,0,0,0,0,0,0,0,0,0,0,0.284,0.284,0.2851,0.2852,0.2852,0.286,0.2859,0.2859,0.2845,0.2845,0.2844,0.2844,0.2831,0.2831,0.2831,0,0,0,0,0,0,0,0,0,0,0,0,0,0.2843,0.284,0.2851,0.2848,0.2848,0.286,0.2859,0.2859,0.2845,0.2845,0.2844,0.2844,0.2831,0.2831,0.2831,0.2837,0,0,0.283,0.283,0,0,0,0,0,0,0,0,0.2843,0.2843,0.2848,0.2848,0.2848,0.2853,0.2851,0.2852,0.2845,0.2843,0.2844,0.2844,0.2839,0.2838,0.2836,0.2836,0.2836,0.283,0.283,0.283,0.283,0,0,0,0,0,0,0,0.2843,0.2843,0.2852,0.2848,0.2848,0.2852,0.2851,0.2851,0.284,0.2843,0.2843,0.2848,0.2838,0.2837,0.2836,0.2835,0.283,0.283,0.283,0.283,0.2887,0.2889,0,0,0,0,0,0,0.2847,0.2843,0.2852,0.2852,0.2848,0.2852,0.2852,0.285,0.2841,0.284,0.2849,0.2848,0.2837,0.2836,0.2836,0.2878,0.283,0.283,0.283,0.2886,0.2888,0.2889,0,0,0,0,0,0,0.2846,0.2847,0.2851,0.285,0.2851,0.2853,0.2851,0.285,0.286,0.2846,0.2844,0.2861,0.2837,0.2836,0.2851,0.2876,0.283,0.283,0.2884,0.2886,0.2888,0.2939,0,0,0,0,0,0,0.2846,0.2847,0.2853,0.285,0.2852,0.2867,0.2851,0.2851,0.2865,0.2864,0.2855,0.2853,0.2837,0.2852,0.2851,0.2874,0.2829,0.2882,0.2885,0.2888,0.2935,0.2943,0.2949,0,0,0,0,0,0.2845,0.2851,0.2853,0.2855,0.2858,0.2868,0.2869,0.2867,0.2866,0.2874,0.2874,0.2854,0.2871,0.2853,0.2852,0.2875,0.288,0.2884,0.2887,0.2932,0.2941,0.2949,0,0,0,0,0,0,0.2847,0.285,0.2852,0.2858,0.2869,0.2867,0.2877,0.2879,0.2885,0.2887,0.287,0.2869,0.2895,0.2882,0.2862,0.2904,0.2874,0.2878,0.2909,0.2917,0.2924,0.295,0.2829,0,0,0,0,0,0.2853,0.2858,0.2864,0.2872,0.2878,0.2882,0.289,0.2891,0.2895,0.2897,0.2893,0.2895,0.2909,0.2909,0.2915,0.2932,0.294,0.295,0.2957,0.2963,0.2985,0.3013,0.3024,0.2901,0.2901,0.2901,0,0,0.2855,0.286,0.2862,0.2874,0.288,0.2896,0.2885,0.2902,0.2923,0.2896,0.2921,0.2922,0.2922,0.2945,0.2955,0.2935,0.3003,0.2968,0.2973,0.2992,0.3018,0.303,0.304,0.2904,0.2903,0.2903,0,0,0.286,0.2869,0.2874,0.289,0.2909,0.2915,0.2925,0.2934,0.2947,0.2968,0.2966,0.2989,0.2987,0.3003,0.3009,0.3062,0.3045,0.3058,0.3106,0.3132,0.3142,0.3151,0.3178,0.319,0.3054,0.3054,0.3055,0,0.2865,0.2871,0.288,0.2897,0.2912,0.2927,0.2943,0.2965,0.298,0.2997,0.2983,0.302,0.3022,0.3067,0.3091,0.3079,0.3088,0.3069,0.3141,0.315,0.3159,0.3184,0.3196,0.3057,0.3057,0.3057,0.3056,0,0.2873,0.2888,0.2896,0.292,0.2941,0.2959,0.299,0.3015,0.3029,0.3045,0.3092,0.31,0.312,0.3129,0.3127,0.3194,0.3179,0.315,0.3117,0.3174,0.3197,0.3208,0.3061,0.306,0.306,0.3059,0,0,0.2852,0.2891,0.2896,0.2909,0.2955,0.2965,0.3019,0.3059,0.3096,0.3118,0.3162,0.3203,0.3209,0.3221,0.3225,0.3258,0.3329,0.3236,0.3236,0.3259,0.3391,0.3325,0.333,0.3304,0.3307,0.3308,0.3383,0,0.2854,0.288,0.2906,0.2937,0.2951,0.2993,0.3039,0.3085,0.3126,0.3175,0.3211,0.3256,0.3244,0.3264,0.3296,0.333,0.3361,0.3313,0.3336,0.3338,0.3268,0.3342,0.3062,0.31,0.3394,0.3396,0.3397,0,0.2846,0.2868,0.2894,0.2941,0.2953,0.2981,0.3052,0.3099,0.3186,0.322,0.3274,0.3303,0.3383,0.3352,0.3435,0.3402,0.3411,0.3425,0.3427,0.3359,0.3292,0.3091,0.3109,0.3415,0.3414,0.3413,0.3411,0,0.2808,0.2854,0.2872,0.2889,0.2951,0.2978,0.3021,0.3108,0.3169,0.3264,0.3315,0.3382,0.344,0.3464,0.3506,0.3475,0.3585,0.3533,0.3481,0.3476,0.3242,0.3213,0.3587,0.3587,0.3587,0.3587,0.3587,0,0.2788,0.28,0.2855,0.2863,0.29,0.2957,0.3021,0.3079,0.319,0.325,0.3339,0.34,0.3475,0.3539,0.3541,0.3559,0.3608,0.3519,0.35,0.3252,0.3224,0.3495,0.3483,0.359,0.3589,0.3588,0.3588,0,0.2735,0.2771,0.2793,0.2857,0.2879,0.2909,0.3021,0.3065,0.3187,0.3276,0.3315,0.3453,0.3529,0.359,0.3651,0.3611,0.3626,0.3611,0.3325,0.3271,0.3489,0.3479,0.3563,0.3561,0.356,0.3559,0.3558,0,0.2706,0.2711,0.2775,0.2789,0.2816,0.2879,0.2915,0.3044,0.31,0.3281,0.3308,0.3453,0.3507,0.3605,0.3566,0.357,0.3621,0.3298,0.3191,0.3519,0.3491,0.3483,0.3476,0.2901,0.2895,0.289,0.2885,0,0.2652,0.2678,0.2698,0.2731,0.2761,0.2803,0.2871,0.2922,0.3058,0.314,0.3246,0.3325,0.3437,0.332,0.335,0.3305,0.3275,0.3196,0.3614,0.2955,0.2902,0.2872,0.2885,0.284,0.2845,0.2848,0.2851,0.2852,0.2609,0.2609,0.2637,0.2652,0.2686,0.2698,0.269,0.2764,0.283,0.2901,0.3062,0.3068,0.3111,0.302,0.2926,0.2854,0.3078,0.2908,0.292,0.2938,0.2854,0.2801,0.2705,0.2709,0.2712,0.2715,0.2717,0,0.2534,0.2537,0.2551,0.2551,0.2526,0.259,0.262,0.2578,0.2569,0.2673,0.2733,0.2538,0.2477,0.252,0.2346,0.2353,0.2307,0.2244,0.2137,0.2185,0.2228,0.2102,0.1757,0.1754,0.175,0.1748,0,0,0.2495,0.2463,0.2456,0.238,0.2377,0.2303,0.2287,0.2248,0.2275,0.2235,0.2211,0.2387,0.2468,0.2074,0.2026,0.1854,0.2006,0.179,0.2568,0.2492,0.253,0.2627,0.2493,0,0,0,0,0]},{"header":{"parameterUnit":"m.s-1","parameterCategory":2,"la1":30.2991,"la2":30.254,"lo1":-89.0895,"lo2":-89.0444,"dy":0.0017,"dx":0.0017,"nx":28,"ny":28,"refTime":"2024-02-07T09:00:00:Z","depth":"2","parameterNumber":3,"parameterNumberName":"V-component_of_CURRENTS"},"data":[0,0,0,0,0,0,0,0,0,0,0,0,0,0,0,0,0,0,0,0,0,0,0,0,0,0,0,0,0,0,0,0,0,0,0,0,0,0,0,0,0,0,0,0,0,0,0,0,0,0,0,0,0,0,0,0,0,0,0.0239,0.0238,0,0.02,0.02,0.0199,0.0171,0.0171,0.0171,0.0171,0.0124,0.0123,0.0122,0,0,0,0,0,0,0,0,0,0,0,0,0,0.0231,0.0231,0.0239,0.0238,0.0238,0.02,0.02,0.0199,0.0171,0.0171,0.0171,0.0171,0.0125,0.0123,0.0122,0,0,0,0,0,0,0,0,0,0,0,0,0,0.0217,0.0231,0.0239,0.022,0.0218,0.02,0.02,0.0199,0.0172,0.0171,0.0171,0.0171,0.0125,0.0124,0.0122,0.0117,0,0,0.0117,0.0116,0,0,0,0,0,0,0,0,0.0218,0.0217,0.0223,0.0221,0.0219,0.0191,0.018,0.0171,0.0172,0.0189,0.0171,0.0171,0.0146,0.0143,0.0136,0.0115,0.0113,0.0117,0.0116,0.0115,0.0115,0,0,0,0,0,0,0,0.0219,0.0218,0.0223,0.0223,0.022,0.0194,0.0192,0.0178,0.0169,0.0187,0.0185,0.0182,0.0145,0.0137,0.0134,0.0112,0.0117,0.0115,0.0114,0.0114,0.0084,0.0084,0,0,0,0,0,0,0.0228,0.022,0.0224,0.0222,0.0218,0.0194,0.0192,0.02,0.0169,0.0164,0.0182,0.0181,0.014,0.0136,0.0133,0.014,0.0115,0.0114,0.0113,0.0084,0.0084,0.0084,0,0,0,0,0,0,0.0228,0.023,0.0226,0.0219,0.0217,0.0195,0.0203,0.0199,0.0194,0.0165,0.016,0.0182,0.014,0.0135,0.0126,0.0137,0.0113,0.0111,0.0084,0.0084,0.0084,0.0145,0,0,0,0,0,0,0.0229,0.023,0.0237,0.0221,0.0218,0.0225,0.0203,0.0198,0.0193,0.0191,0.0164,0.0159,0.0139,0.0129,0.0124,0.0135,0.011,0.0084,0.0084,0.0084,0.0143,0.0147,0.0151,0,0,0,0,0,0.0229,0.0245,0.0238,0.0238,0.0229,0.0225,0.0222,0.0204,0.0193,0.0198,0.0178,0.016,0.0127,0.0128,0.0123,0.0133,0.0083,0.0084,0.0084,0.0141,0.0147,0.0151,0,0,0,0,0,0,0.0242,0.0243,0.0235,0.0249,0.0241,0.0221,0.0221,0.0209,0.0197,0.0193,0.0165,0.0159,0.0153,0.0134,0.0135,0.0123,0.0101,0.0101,0.0146,0.0151,0.0155,0.0174,0.0109,0,0,0,0,0,0.0249,0.0262,0.0253,0.0263,0.0261,0.0242,0.0237,0.0226,0.0212,0.0206,0.0187,0.0166,0.015,0.0145,0.0125,0.0124,0.0097,0.0125,0.0129,0.0133,0.0144,0.0111,0.0113,0.0086,0.0086,0.0086,0,0,0.0254,0.0257,0.0263,0.0266,0.0256,0.0266,0.0238,0.0237,0.0247,0.0203,0.0208,0.0179,0.0152,0.0148,0.0144,0.0135,0.0125,0.0133,0.0137,0.0146,0.0112,0.0114,0.0117,0.0086,0.0086,0.0086,0,0,0.0277,0.0276,0.0297,0.0297,0.0291,0.0282,0.0286,0.0271,0.0267,0.0265,0.0236,0.0217,0.0194,0.0179,0.0168,0.0185,0.0147,0.0174,0.0215,0.0184,0.0186,0.0188,0.0154,0.0152,0.0179,0.0179,0.018,0,0.0281,0.0312,0.0299,0.0318,0.0327,0.0296,0.032,0.0311,0.0295,0.0298,0.0274,0.0237,0.0211,0.0211,0.0215,0.0196,0.0169,0.0201,0.019,0.0191,0.0192,0.0157,0.0154,0.0182,0.0182,0.0182,0.0182,0,0.0323,0.0345,0.0356,0.0376,0.0379,0.0394,0.0385,0.0389,0.0373,0.0359,0.0349,0.0304,0.0286,0.0269,0.0248,0.0244,0.0219,0.0198,0.0181,0.0199,0.016,0.0157,0.0187,0.0186,0.0185,0.0184,0,0,0.0345,0.0381,0.0386,0.0411,0.0416,0.0427,0.0447,0.0459,0.048,0.0439,0.0456,0.041,0.0376,0.0361,0.0323,0.0293,0.0269,0.0253,0.025,0.0228,0.0195,0.0176,0.017,0.0243,0.0243,0.0243,0.0166,0,0.0384,0.0444,0.0447,0.0497,0.0529,0.0518,0.0543,0.0545,0.0535,0.054,0.0484,0.0475,0.0415,0.0405,0.0366,0.0298,0.0262,0.0292,0.0176,0.0172,0.0159,0.0166,0.0191,0.0124,0.0162,0.0161,0.016,0,0.0431,0.0469,0.0532,0.0581,0.0592,0.0612,0.0654,0.0674,0.0668,0.0658,0.0627,0.0576,0.0532,0.0473,0.0361,0.0381,0.0297,0.0232,0.0227,0.0189,0.0147,0.0112,0.0115,0.0153,0.0154,0.0154,0.0155,0,0.0474,0.053,0.0588,0.0604,0.0647,0.0674,0.0697,0.0709,0.075,0.0732,0.0746,0.0665,0.0641,0.0522,0.0382,0.0372,0.025,0.0219,0.0118,0.0115,0.0105,0.0102,0.0135,0.0135,0.0135,0.0136,0.0136,0,0.0526,0.057,0.0614,0.0646,0.0723,0.0727,0.0802,0.0814,0.0842,0.0892,0.0811,0.0826,0.0651,0.0558,0.0414,0.0259,0.0271,0.013,0.0097,0.0125,0.0125,0.0125,0.0125,0.0133,0.0133,0.0134,0.0134,0,0.0566,0.0593,0.0666,0.0722,0.0749,0.0804,0.0888,0.0941,0.0953,0.1017,0.1016,0.0952,0.0831,0.0645,0.0455,0.0317,0.0158,0.0096,0.0139,0.0113,0.0034,0.0038,-0.0019,-0.0021,-0.0022,-0.0023,-0.0023,0,0.0595,0.0638,0.0728,0.0779,0.0807,0.0891,0.0957,0.1001,0.1065,0.1099,0.1138,0.1043,0.1,0.0715,0.0449,0.0192,0.0154,0.0038,0.0022,0.0046,0.0019,0.0025,0.003,0.0025,0.0025,0.0025,0.0024,0,0.065,0.0678,0.0739,0.085,0.0926,0.1029,0.1122,0.1193,0.1244,0.1297,0.134,0.1306,0.1039,0.0791,0.0434,0.0259,0.008,0.0026,0.004,0.0065,0.0082,0.0058,0.0063,0.0022,0.0023,0.0023,0.0023,0.0023,0.0689,0.0742,0.0821,0.0926,0.1024,0.1149,0.124,0.1336,0.1454,0.1524,0.1487,0.1436,0.1141,0.0698,0.039,0.0062,0.0083,-0.0037,-0.0035,-0.0032,-0.0008,0.0007,-0.0063,-0.0064,-0.0064,-0.0064,-0.0064,0,0.074,0.0799,0.0893,0.1019,0.1128,0.1176,0.1339,0.1426,0.1564,0.1611,0.1639,0.136,0.1083,0.074,0.0265,-0.0014,-0.0035,-0.0113,-0.0073,-0.0069,-0.0065,-0.0042,-0.0107,-0.0108,-0.0109,-0.011,0,0,0.0767,0.0857,0.0904,0.108,0.1172,0.1327,0.1425,0.1549,0.1627,0.1683,0.1647,0.1575,0.1176,0.0819,0.0438,0.0166,0.0111,0.0107,0.0175,0.0272,0.0278,0.0013,0.0058,0,0,0,0,0]}],[{"header":{"parameterUnit":"m.s-1","parameterCategory":2,"la1":30.2991,"la2":30.254,"lo1":-89.0895,"lo2":-89.0444,"dy":0.0017,"dx":0.0017,"nx":28,"ny":28,"refTime":"2024-02-07T09:00:00:Z","depth":"4","parameterNumber":2,"parameterNumberName":"U-component_of_CURRENTS"},"data":[0,0,0,0,0,0,0,0,0,0,0,0,0,0,0,0,0,0,0,0,0,0,0,0,0,0,0,0,0,0,0,0,0,0,0,0,0,0,0,0,0,0,0,0,0,0,0,0,0,0,0,0,0,0,0,0,0,0,0.1881,0.1882,0,0.1937,0.1937,0.1938,0.1988,0.1989,0.1989,0.199,0.2058,0.2059,0.206,0,0,0,0,0,0,0,0,0,0,0,0,0,0.1813,0.1813,0.1881,0.1882,0.1883,0.1937,0.1938,0.1938,0.1988,0.1989,0.199,0.1991,0.2058,0.2059,0.206,0,0,0,0,0,0,0,0,0,0,0,0,0,0.1851,0.1814,0.1881,0.1916,0.192,0.1937,0.1938,0.1938,0.1987,0.1989,0.199,0.1991,0.2057,0.2059,0.206,0.2046,0,0,0.2065,0.2066,0,0,0,0,0,0,0,0,0.1848,0.1853,0.191,0.1913,0.1918,0.1959,0.1939,0.1976,0.1987,0.1959,0.199,0.1992,0.2027,0.2031,0.2035,0.2049,0.2052,0.2065,0.2066,0.2067,0.2067,0,0,0,0,0,0,0,0.1846,0.1851,0.1901,0.1911,0.1916,0.1928,0.1934,0.1946,0.1984,0.1962,0.1966,0.1976,0.2029,0.2033,0.2037,0.2053,0.2065,0.2067,0.2068,0.2068,0.218,0.2182,0,0,0,0,0,0,0.1843,0.1848,0.1899,0.1903,0.1888,0.1928,0.1935,0.1942,0.1984,0.1992,0.1975,0.1978,0.203,0.2035,0.204,0.213,0.2067,0.2068,0.2069,0.2178,0.218,0.2182,0,0,0,0,0,0,0.1841,0.1846,0.1897,0.1879,0.1886,0.1928,0.1936,0.1943,0.199,0.1994,0.2002,0.2019,0.2031,0.2037,0.209,0.2129,0.2069,0.2071,0.2175,0.2178,0.2181,0.2243,0,0,0,0,0,0,0.1838,0.1845,0.187,0.1878,0.1887,0.1931,0.1935,0.1943,0.1992,0.1998,0.2033,0.2039,0.2033,0.2087,0.2091,0.213,0.2072,0.2173,0.2177,0.218,0.2238,0.2248,0.2255,0,0,0,0,0,0.1836,0.1855,0.1871,0.1879,0.1913,0.1933,0.1939,0.197,0.1994,0.2017,0.2049,0.204,0.2114,0.209,0.2094,0.2134,0.2171,0.2176,0.218,0.2234,0.2246,0.2255,0,0,0,0,0,0,0.184,0.1862,0.188,0.1907,0.1933,0.1943,0.1975,0.1994,0.2036,0.2057,0.2061,0.2068,0.2131,0.2126,0.2099,0.2179,0.2143,0.2148,0.2183,0.2193,0.2202,0.2215,0.2073,0,0,0,0,0,0.1851,0.1877,0.1895,0.1924,0.1939,0.1966,0.1988,0.2009,0.2037,0.2059,0.2084,0.2115,0.2144,0.2165,0.2186,0.2226,0.2225,0.2257,0.2265,0.2273,0.2288,0.2317,0.233,0.2197,0.2197,0.2197,0,0,0.1862,0.188,0.1896,0.1928,0.1953,0.1979,0.1983,0.2027,0.2063,0.2058,0.2129,0.215,0.2164,0.2213,0.224,0.2218,0.2311,0.2278,0.2284,0.2296,0.2323,0.2336,0.2348,0.22,0.22,0.2199,0,0,0.1879,0.1913,0.1936,0.1961,0.2005,0.2019,0.2041,0.2075,0.2113,0.2166,0.2182,0.2232,0.2268,0.229,0.2303,0.2374,0.2359,0.2384,0.2436,0.2464,0.2475,0.2484,0.2499,0.251,0.2384,0.2385,0.2385,0,0.1896,0.1921,0.1947,0.1974,0.2003,0.2041,0.2071,0.2109,0.2161,0.2193,0.2202,0.2286,0.2305,0.2364,0.2397,0.2394,0.2402,0.2391,0.2474,0.2484,0.2493,0.2505,0.2516,0.2388,0.2388,0.2387,0.2387,0,0.1913,0.1953,0.1971,0.2017,0.2051,0.2087,0.2133,0.2184,0.2232,0.2262,0.2346,0.2376,0.2423,0.2441,0.2445,0.2522,0.2505,0.2482,0.2444,0.2509,0.2519,0.2529,0.2393,0.2392,0.2391,0.239,0,0,0.1896,0.1968,0.198,0.2009,0.208,0.21,0.2176,0.2236,0.2292,0.2354,0.242,0.2489,0.2515,0.2534,0.255,0.2586,0.266,0.2572,0.2572,0.258,0.2721,0.2544,0.2537,0.2651,0.2653,0.2655,0.2702,0,0.1905,0.1956,0.1995,0.2056,0.2083,0.2147,0.2208,0.2276,0.2343,0.2417,0.2472,0.2546,0.2546,0.2588,0.2625,0.266,0.269,0.2649,0.2663,0.2664,0.2491,0.2544,0.2662,0.2709,0.2711,0.2713,0.2714,0,0.1898,0.1937,0.1995,0.2072,0.2093,0.2143,0.2246,0.2309,0.242,0.2475,0.2555,0.26,0.2691,0.2673,0.2758,0.2734,0.2742,0.2753,0.2754,0.2575,0.2504,0.2632,0.2732,0.273,0.2729,0.2728,0.2727,0,0.1849,0.1931,0.1979,0.2007,0.2103,0.2156,0.2222,0.2333,0.2404,0.2532,0.2592,0.2681,0.2751,0.2781,0.2821,0.2802,0.2892,0.2853,0.2695,0.2682,0.2801,0.279,0.2901,0.2901,0.2901,0.2901,0.29,0,0.1817,0.1859,0.1968,0.1992,0.2063,0.2145,0.2241,0.232,0.245,0.2519,0.263,0.2686,0.2789,0.2844,0.2849,0.2803,0.2911,0.2715,0.2685,0.2825,0.2817,0.2807,0.2796,0.2902,0.2902,0.2902,0.2901,0,0.1747,0.1819,0.188,0.1997,0.2041,0.2099,0.2253,0.2309,0.2453,0.2549,0.2598,0.2733,0.279,0.2857,0.2915,0.2826,0.2807,0.276,0.2921,0.2897,0.257,0.2562,0.2575,0.2569,0.2565,0.256,0.2557,0,0.1707,0.1734,0.1873,0.1915,0.1977,0.2081,0.2141,0.2297,0.2355,0.2539,0.2558,0.2688,0.2745,0.2688,0.2768,0.2753,0.2718,0.2687,0.2615,0.2569,0.2539,0.2539,0.2537,0.2549,0.2548,0.2546,0.2545,0,0.1633,0.1705,0.1757,0.1848,0.1923,0.199,0.2092,0.2126,0.228,0.2431,0.2456,0.2481,0.2538,0.2566,0.2584,0.2566,0.2694,0.2634,0.2643,0.2575,0.2537,0.2513,0.2517,0.2528,0.2531,0.2532,0.2533,0,0.1586,0.1606,0.1691,0.1752,0.1839,0.1861,0.1935,0.1986,0.2066,0.2257,0.2255,0.2377,0.2506,0.2469,0.248,0.2456,0.2406,0.2311,0.2336,0.2356,0.226,0.2178,0.2039,0,0,0,0,0,0.1524,0.1528,0.158,0.1631,0.1709,0.1758,0.1873,0.1946,0.2094,0.205,0.215,0.2181,0.2197,0.2268,0.2197,0.238,0.242,0.2285,0.2325,0.2433,0.2453,0.2359,0,0,0,0,0,0,0.1479,0.1527,0.1537,0.1515,0.1523,0.1587,0.1653,0.1754,0.1743,0.1902,0.1927,0.204,0.2098,0.2212,0.2152,0.2171,0.2148,0.2368,0.2362,0.2422,0.244,0.2456,0.2366,0,0,0,0,0]},{"header":{"parameterUnit":"m.s-1","parameterCategory":2,"la1":30.2991,"la2":30.254,"lo1":-89.0895,"lo2":-89.0444,"dy":0.0017,"dx":0.0017,"nx":28,"ny":28,"refTime":"2024-02-07T09:00:00:Z","depth":"4","parameterNumber":3,"parameterNumberName":"V-component_of_CURRENTS"},"data":[0,0,0,0,0,0,0,0,0,0,0,0,0,0,0,0,0,0,0,0,0,0,0,0,0,0,0,0,0,0,0,0,0,0,0,0,0,0,0,0,0,0,0,0,0,0,0,0,0,0,0,0,0,0,0,0,0,0,0.021,0.021,0,0.0188,0.0188,0.0187,0.0175,0.0175,0.0175,0.0175,0.0147,0.0146,0.0146,0,0,0,0,0,0,0,0,0,0,0,0,0,0.0201,0.0201,0.021,0.021,0.021,0.0188,0.0188,0.0187,0.0175,0.0175,0.0175,0.0175,0.0147,0.0147,0.0146,0,0,0,0,0,0,0,0,0,0,0,0,0,0.0194,0.0201,0.021,0.0201,0.02,0.0188,0.0188,0.0187,0.0175,0.0175,0.0175,0.0175,0.0148,0.0147,0.0146,0.0139,0,0,0.0142,0.0142,0,0,0,0,0,0,0,0,0.0195,0.0195,0.0203,0.0202,0.0201,0.0184,0.0174,0.0171,0.0175,0.0184,0.0175,0.0175,0.0159,0.0157,0.0153,0.0138,0.0137,0.0142,0.0141,0.0141,0.0141,0,0,0,0,0,0,0,0.0195,0.0195,0.0201,0.0203,0.0201,0.0184,0.0183,0.0173,0.0172,0.0184,0.0183,0.018,0.0159,0.0154,0.0152,0.0136,0.0142,0.0141,0.014,0.014,0.012,0.012,0,0,0,0,0,0,0.0201,0.0196,0.0202,0.0201,0.0198,0.0184,0.0183,0.0189,0.0172,0.017,0.018,0.018,0.0156,0.0153,0.0151,0.016,0.0141,0.014,0.0139,0.012,0.012,0.0121,0,0,0,0,0,0,0.0201,0.0202,0.0203,0.0197,0.0196,0.0185,0.0191,0.0189,0.019,0.017,0.0167,0.0184,0.0156,0.0153,0.015,0.0159,0.0139,0.0138,0.012,0.012,0.012,0.0168,0,0,0,0,0,0,0.0201,0.0202,0.0209,0.0198,0.0197,0.0204,0.0191,0.0189,0.0188,0.0188,0.0172,0.0169,0.0155,0.0152,0.0149,0.0157,0.0138,0.012,0.012,0.012,0.0166,0.017,0.0173,0,0,0,0,0,0.0201,0.0213,0.021,0.021,0.0207,0.0205,0.0203,0.0194,0.0189,0.0194,0.0183,0.017,0.0151,0.0151,0.0148,0.0156,0.012,0.012,0.012,0.0165,0.0169,0.0173,0,0,0,0,0,0,0.021,0.0212,0.0209,0.0221,0.0216,0.0203,0.0205,0.0199,0.0194,0.0193,0.0175,0.0171,0.017,0.0155,0.0156,0.0149,0.0132,0.0132,0.0167,0.0171,0.0174,0.0188,0.0137,0,0,0,0,0,0.0216,0.0228,0.0222,0.0231,0.0231,0.0219,0.0217,0.0212,0.0204,0.0202,0.0191,0.0177,0.0167,0.0164,0.0151,0.0151,0.0127,0.0152,0.0155,0.0158,0.0167,0.0136,0.0138,0.0121,0.0121,0.0121,0,0,0.0221,0.0224,0.023,0.0234,0.0229,0.0237,0.0218,0.022,0.023,0.0199,0.0209,0.0189,0.0169,0.0168,0.0166,0.0159,0.0149,0.0158,0.0161,0.0168,0.0137,0.0139,0.014,0.0122,0.0122,0.0122,0,0,0.0238,0.0241,0.0256,0.0258,0.0257,0.0251,0.0255,0.0247,0.0247,0.025,0.023,0.0218,0.0204,0.0193,0.0185,0.0198,0.0166,0.0191,0.0222,0.0193,0.0194,0.0195,0.0162,0.0159,0.0194,0.0194,0.0194,0,0.0243,0.0267,0.0259,0.0274,0.0283,0.0263,0.0282,0.0278,0.027,0.0274,0.026,0.0235,0.0218,0.0217,0.0221,0.0207,0.0182,0.0211,0.0198,0.0198,0.0198,0.0164,0.0161,0.0196,0.0196,0.0196,0.0196,0,0.0273,0.0292,0.0301,0.0319,0.0324,0.0337,0.0333,0.0339,0.0332,0.0323,0.0318,0.0287,0.0275,0.0262,0.0248,0.0242,0.0221,0.0205,0.0191,0.0203,0.0166,0.0162,0.02,0.0199,0.0198,0.0197,0,0,0.0286,0.0318,0.0323,0.0345,0.0353,0.0363,0.0382,0.0394,0.0412,0.0385,0.04,0.0368,0.0344,0.0333,0.0304,0.0277,0.0252,0.0247,0.0244,0.0219,0.0183,0.0165,0.0159,0.0233,0.0232,0.0232,0.0155,0,0.0314,0.0362,0.0367,0.0411,0.0436,0.0434,0.0456,0.0461,0.0456,0.0463,0.0421,0.0418,0.0373,0.0369,0.0334,0.0277,0.0244,0.0275,0.017,0.0167,0.0155,0.0154,0.0231,0.0151,0.015,0.015,0.0149,0,0.0346,0.0377,0.0429,0.0474,0.0485,0.0505,0.0544,0.0563,0.056,0.0555,0.0533,0.0496,0.0459,0.0417,0.0318,0.0339,0.0269,0.0214,0.0209,0.0176,0.0142,0.0136,0.0141,0.0141,0.0142,0.0143,0.0143,0,0.0372,0.0422,0.0471,0.0486,0.0527,0.0554,0.0578,0.0591,0.0625,0.0616,0.0626,0.0562,0.0543,0.0445,0.0327,0.0325,0.0208,0.0189,0.0103,0.0101,0.0118,0.0118,0.0116,0.0116,0.0117,0.0117,0.0117,0,0.0404,0.0444,0.049,0.0517,0.0585,0.0595,0.066,0.0674,0.07,0.0737,0.0678,0.0682,0.0549,0.0464,0.0347,0.0211,0.0219,0.011,0.0082,0.0139,0.0142,0.0115,0.0116,0.0114,0.0115,0.0115,0.0116,0,0.0424,0.0454,0.0517,0.0574,0.0601,0.065,0.0731,0.0773,0.0787,0.0834,0.0835,0.0776,0.0666,0.0516,0.0355,0.0249,0.0113,0.006,0.0131,0.0107,0.002,0.0024,-0.0035,-0.0036,-0.0037,-0.0038,-0.0039,0,0.0439,0.0474,0.0563,0.061,0.064,0.0717,0.0775,0.082,0.0867,0.0888,0.091,0.0826,0.076,0.0521,0.036,0.0128,0.0091,0.0012,0.0016,0.0027,0.0005,0.0011,0.0017,-0.0041,-0.0041,-0.0041,-0.0041,0,0.0466,0.0499,0.0552,0.0651,0.0722,0.0811,0.089,0.0932,0.0977,0.0989,0.0966,0.0845,0.072,0.053,0.0344,0.0179,0.0059,0.0001,0.0002,0.0005,0.002,0.0001,0.0007,-0.0045,-0.0044,-0.0044,-0.0044,0,0.0487,0.0528,0.06,0.0687,0.0783,0.0872,0.0915,0.0964,0.1013,0.1023,0.1013,0.0875,0.0799,0.0556,0.0389,0.022,0.0177,0.0111,0.0105,0.0107,0.0166,0.0207,0.0178,0,0,0,0,0,0.0506,0.0552,0.063,0.0727,0.0822,0.0881,0.098,0.1012,0.1052,0.104,0.1028,0.0907,0.0669,0.0578,0.0406,0.0364,0.0143,0.0155,0.0062,-0.0064,-0.006,-0.0017,0,0,0,0,0,0,0.0517,0.0588,0.0627,0.0746,0.0814,0.0923,0.0989,0.1016,0.1012,0.102,0.0903,0.0846,0.0623,0.0761,0.0396,0.0348,0.026,0.005,0.0046,-0.0067,-0.0063,-0.006,-0.0014,0,0,0,0,0]}]]